Regional Weather Roundup
Issued by NWS

Home | Current Version | Previous Version | Text Only | Print | Product List | Glossary On
Versions: 1 2 3 4 5 6 7 8 9 10 11 12 13 14 15 16 17 18 19 20 21 22 23 24 25 26 27 28 29 30 31 32 33 34 35 36 37 38 39 40 41 42 43 44 45 46 47 48 49 50
000
ASUS43 KLSX 291407
RWRMO

WEATHER SUMMARY FOR MISSOURI
NATIONAL WEATHER SERVICE SPRINGFIELD MO
900 AM CDT FRI AUG 29 2014

NOTE: "FAIR" INDICATES FEW OR NO CLOUDS BELOW 12,000 FEET WITH NO
       SIGNIFICANT WEATHER AND/OR OBSTRUCTIONS TO VISIBILITY.
       CURRENT SKY AND/OR WEATHER CONDITIONS ARE NOT AVAILABLE FOR
       CHILLICOTHE AND FARMINGTON.

MOZ001>031-035>038-043-044-053-054-291500-
...NORTHERN AND WESTERN MISSOURI...

CITY           SKY/WX    TMP DP  RH WIND       PRES   REMARKS
KANSAS CTY INT PTSUNNY   77  66  68 S7        29.87S
KANSAS C DTWN  MOSUNNY   78  65  63 S7        29.87S
LEE`S SUMMIT   MOSUNNY   75  65  70 SW7       29.89S
ST JOSEPH      PTSUNNY   76  68  76 S7        29.85S
CHILLICOTHE      N/A     76  67  73 SE9       29.89S
KIRKSVILLE     SUNNY     76  68  76 S8        29.92F

$$
MOZ066>068-077>081-088>096-101>105-291500-
...SOUTHWEST MISSOURI...

CITY           SKY/WX    TMP DP  RH WIND       PRES   REMARKS
SPRINGFIELD    MOSUNNY   79  64  60 S13       29.93F
JOPLIN         CLOUDY    75  68  78 S8        29.91S

$$
MOZ032>034-039>042-045>050-055>058-069>072-291500-
...CENTRAL MISSOURI...

CITY           SKY/WX    TMP DP  RH WIND       PRES   REMARKS
COLUMBIA         N/A    N/A N/A N/A MISG      29.94S
JEFFERSON CITY SUNNY     79  66  64 SE6       29.93S
ROLLA          SUNNY     79  65  62 S9        29.96F
SEDALIA        SUNNY     78  65  63 S9        29.92S HAZE
WHITEMAN AFB   SUNNY     75  66  74 S7        29.89F
OSAGE BEACH    SUNNY     75  63  64 S7        29.94S

$$
MOZ051-052-059>065-291500-
...EAST CENTRAL MISSOURI...

CITY           SKY/WX    TMP DP  RH WIND       PRES   REMARKS
ST LOUIS INTL  MOSUNNY   81  71  71 S3        29.97F
SPIRIT OF STL  MOSUNNY   78  71  79 S6        29.95F
ST CHARLES     SUNNY     77  72  84 S5        29.95F HAZE

$$
MOZ072>076-082>087-097>100-106>115-291500-
...SOUTH CENTRAL AND SOUTHEAST MISSOURI...

CITY           SKY/WX    TMP DP  RH WIND       PRES   REMARKS
CAPE GIRARDEAU SUNNY     78  73  84 CALM      29.98S HAZE
FARMINGTON     MOSUNNY   73  72  94 SE7       30.01S
POPLAR BLUFF   SUNNY     78  70  76 CALM      29.96S
WEST PLAINS    MOSUNNY   77  64  64 S7        30.00S

$$



USA.gov is the U.S. government's official web portal to all federal, state and local government web resources and services.